Home   Weather   Bandar Seri Begawan   Past weeks

Flag for Brunei Past Weather in Bandar Seri Begawan, Brunei — Yesterday and Last 2 Weeks

Now
86 °F

Partly sunny.


Feels Like: 95 °F
Forecast: 78 / 88 °F
Wind: 3 mph from North

Location: Brunei Airport

Current Time: Dec 4, 2016 at 6:26:39 pm

Latest Report: Dec 4, 2016 at 6:00 pm


Visibility: N/A

Pressure: 29.80 "Hg

Humidity: 70%

Dew Point: 75 °F

Location of Bandar Seri BegawanLocation

Past Weather in Bandar Seri Begawan — Graph

°F

Bandar Seri Begawan Temperature Yesterday

Maximum temperature yesterday: 88 °F (at 11:30 am)
Minimum temperature yesterday: 73 °F (at 2:00 am)
Average temperature yesterday: 80 °F

High & Low Weather Summary for the Past Weeks

 TemperatureHumidityPressure
High91 °F (Nov 20, 12:30 pm)100% (Nov 20, 12:00 am)29.89 "Hg (Nov 20, 12:00 am)
Low73 °F (Dec 3, 2:00 am)55% (Nov 28, 3:30 pm)29.68 "Hg (Nov 20, 2:30 pm)
Average82 °F86%29.80 "Hg
* Reported Nov 19 5:00 pm — Dec 4 5:00 pm, Bandar Seri Begawan, Weather by CustomWeather, © 2016

Note: Actual official high and low records may vary slightly from our data, if they occured in-between our weather recording intervals... More about our weather records

Advertising

Bandar Seri Begawan Weather History for the Previous 24 Hours

Scroll right to see more
 ConditionsComfort  
Time TempWeatherWind HumidityBarometerVisibility
5:00 pm
Sun, Dec 4
86 °FPartly sunny.3 mph70%29.80 "HgN/A
4:30 pm86 °FPartly sunny.3 mph70%29.77 "HgN/A
4:00 pm88 °FPartly sunny.5 mph66%29.77 "HgN/A
3:30 pm88 °FPartly sunny.5 mph66%29.77 "HgN/A
3:00 pm88 °FPartly sunny.5 mph66%29.77 "HgN/A
2:30 pm86 °FPartly sunny.6 mph70%29.77 "HgN/A
2:00 pm88 °FBroken clouds.5 mph70%29.80 "HgN/A
1:30 pm88 °FBroken clouds.2 mph70%29.80 "HgN/A
1:00 pm90 °FPartly sunny.1 mph63%29.83 "HgN/A
12:30 pm88 °FPartly sunny.2 mph66%29.83 "HgN/A
12:00 pm86 °FPartly sunny.2 mph75%29.83 "HgN/A
11:30 am86 °FPartly sunny.5 mph66%29.83 "HgN/A
11:00 am86 °FPartly sunny.3 mph70%29.83 "HgN/A
10:30 am86 °FPartly sunny.3 mph75%29.86 "HgN/A
10:00 am84 °FPartly sunny.3 mph74%29.86 "HgN/A
9:30 am86 °FPartly sunny.2 mph75%29.86 "HgN/A
9:00 am84 °FPartly sunny.2 mph74%29.86 "HgN/A
8:30 am81 °FBroken clouds.2 mph84%29.86 "HgN/A
8:00 am79 °FBroken clouds.1 mph89%29.86 "HgN/A
7:30 am79 °FSprinkles. Broken clouds.2 mph89%29.86 "HgN/A
7:00 am77 °FSprinkles. Partly sunny.1 mph94%29.83 "HgN/A
6:30 am77 °FSprinkles. Broken clouds.2 mph94%29.83 "HgN/A
6:00 am77 °FPassing clouds.3 mph94%29.83 "HgN/A
5:30 am77 °FPassing clouds.2 mph94%29.83 "HgN/A
5:00 am77 °FPassing clouds.3 mph100%29.83 "HgN/A
4:30 am77 °FPassing clouds.3 mph100%29.83 "HgN/A
4:00 am79 °FPassing clouds.2 mph94%29.83 "HgN/A
3:30 am79 °FPassing clouds.2 mph94%29.83 "HgN/A
3:00 am79 °FPassing clouds.1 mph94%29.83 "HgN/A
2:30 am79 °FPassing clouds.3 mph94%29.83 "HgN/A
2:00 am79 °FPassing clouds.3 mph94%29.83 "HgN/A
1:30 am79 °FPassing clouds.3 mph94%29.86 "HgN/A
1:00 am79 °FPassing clouds.2 mph94%29.86 "HgN/A
12:30 am79 °FPassing clouds.1 mph94%29.86 "HgN/A
12:00 am79 °FPassing clouds.3 mph94%29.89 "HgN/A
11:30 pm
Sat, Dec 3
79 °FPassing clouds.2 mph94%29.89 "HgN/A
11:00 pm79 °FPassing clouds.3 mph94%29.89 "HgN/A
10:30 pm81 °FPassing clouds.2 mph94%29.89 "HgN/A
10:00 pm79 °FPassing clouds.2 mph100%29.89 "HgN/A
9:30 pm81 °FPassing clouds.3 mph89%29.89 "HgN/A
9:00 pm81 °FPassing clouds.3 mph89%29.89 "HgN/A
8:30 pm81 °FPassing clouds.2 mph89%29.89 "HgN/A
8:00 pm81 °FPassing clouds.5 mph89%29.86 "HgN/A
7:30 pm81 °FPassing clouds.1 mph84%29.86 "HgN/A
7:00 pm82 °FPassing clouds.2 mph79%29.86 "HgN/A
6:30 pm82 °FPartly cloudy.2 mph79%29.83 "HgN/A
6:00 pm82 °FBroken clouds.5 mph79%29.83 "HgN/A
Weather by CustomWeather, © 2016

See weather overviewHow to use our weather pages